When you browse on this site, cookies collect data to enhance your experience and personalize the content and advertising you see.
Visit our Privacy Policy to learn more. By continuing to use the site, you agree to this use of cookies and data.
  • In Hungary
  • List of Countries
  • For 7 days
  • Water Temperature
  • Satellite Maps
  • Weather Map
  • News
  • Weather Widgets
  • user-avatar
    Login

    Hourly Weather Yanashbelyak

    Today, 21 November, Wednesday

    Time Temperature Precipitation Wind Pressure Humidity
    00:00 -5°C° 0 mm 4 mps 751 mmHg 77%
    01:00 -5°C° 0 mm 4 mps 751 mmHg 76%
    02:00 -6°C° 0 mm 5 mps 750 mmHg 75%
    03:00 -6°C° 0 mm 5 mps 750 mmHg 77%
    04:00 -6°C° 0 mm 5 mps 749 mmHg 78%
    05:00 -6°C° 0 mm 5 mps 749 mmHg 79%
    06:00 -6°C° 0 mm 5 mps 749 mmHg 79%
    07:00 -6°C° 0.1 mm 5 mps 748 mmHg 80%
    08:00 -5°C° 0.1 mm 5 mps 748 mmHg 81%
    09:00 -5°C° 0 mm 5 mps 747 mmHg 82%
    10:00 -4°C° 0.1 mm 6 mps 747 mmHg 81%
    11:00 -4°C° 0.1 mm 6 mps 747 mmHg 81%
    12:00 -3°C° 0.1 mm 6 mps 747 mmHg 80%
    13:00 -3°C° 0.1 mm 6 mps 747 mmHg 77%
    14:00 -4°C° 0.1 mm 6 mps 747 mmHg 74%
    15:00 -4°C° 0.1 mm 5 mps 747 mmHg 72%
    16:00 -5°C° 0 mm 5 mps 748 mmHg 73%
    17:00 -6°C° 0 mm 5 mps 748 mmHg 73%
    18:00 -7°C° 0 mm 5 mps 748 mmHg 74%
    19:00 -7°C° 0 mm 4 mps 748 mmHg 76%
    20:00 -7°C° 0 mm 4 mps 748 mmHg 78%
    21:00 -8°C° 0 mm 4 mps 748 mmHg 80%
    22:00 -8°C° 0 mm 4 mps 748 mmHg 81%
    23:00 -8°C° 0 mm 4 mps 748 mmHg 82%

    Tomorrow, 22 November, Thursday

    Time Temperature Precipitation Wind Pressure Humidity
    00:00 -8°C° 0 mm 4 mps 748 mmHg 83%
    01:00 -8°C° 0 mm 4 mps 748 mmHg 84%
    02:00 -9°C° 0 mm 4 mps 747 mmHg 86%
    03:00 -9°C° 0 mm 4 mps 747 mmHg 87%
    04:00 -8°C° 0 mm 4 mps 746 mmHg 87%
    05:00 -8°C° 0 mm 4 mps 746 mmHg 88%
    06:00 -8°C° 0 mm 4 mps 746 mmHg 88%
    07:00 -8°C° 0.1 mm 5 mps 745 mmHg 87%
    08:00 -7°C° 0.1 mm 5 mps 744 mmHg 85%
    09:00 -8°C° 0.1 mm 6 mps 743 mmHg 83%
    10:00 -6°C° 0.2 mm 6 mps 743 mmHg 82%
    11:00 -7°C° 0.2 mm 7 mps 742 mmHg 81%
    12:00 -7°C° 0.2 mm 7 mps 741 mmHg 80%
    13:00 -7°C° 0.3 mm 7 mps 741 mmHg 82%
    14:00 -7°C° 0.3 mm 7 mps 740 mmHg 83%
    15:00 -6°C° 0.3 mm 6 mps 739 mmHg 85%
    16:00 -6°C° 0.3 mm 6 mps 738 mmHg 86%
    17:00 -6°C° 0.3 mm 6 mps 737 mmHg 88%
    18:00 -6°C° 0.3 mm 6 mps 736 mmHg 89%
    19:00 -5°C° 0.6 mm 6 mps 736 mmHg 87%
    20:00 -6°C° 0.6 mm 7 mps 736 mmHg 86%
    21:00 -6°C° 0.6 mm 8 mps 736 mmHg 85%
    22:00 -7°C° 0.1 mm 7 mps 736 mmHg 81%
    23:00 -8°C° 0.1 mm 7 mps 736 mmHg 77%

    Day after tomorrow, 23 November, Friday

    Time Temperature Precipitation Wind Pressure Humidity
    00:00 -9°C° 0.1 mm 6 mps 737 mmHg 73%
    01:00 -9°C° 0.1 mm 6 mps 738 mmHg 76%
    02:00 -9°C° 0.1 mm 6 mps 739 mmHg 79%
    03:00 -10°C° 0.1 mm 5 mps 739 mmHg 82%
    04:00 -10°C° 0.2 mm 6 mps 740 mmHg 82%
    05:00 -10°C° 0.2 mm 6 mps 741 mmHg 82%
    06:00 -10°C° 0.2 mm 6 mps 742 mmHg 82%
    07:00 -11°C° 0 mm 6 mps 743 mmHg 80%
    08:00 -11°C° 0 mm 6 mps 744 mmHg 78%
    09:00 -11°C° 0 mm 6 mps 745 mmHg 76%
    10:00 -11°C° 0 mm 6 mps 746 mmHg 76%
    11:00 -11°C° 0 mm 7 mps 747 mmHg 76%
    12:00 -11°C° 0 mm 7 mps 748 mmHg 75%
    13:00 -11°C° 0 mm 7 mps 748 mmHg 75%
    14:00 -10°C° 0 mm 6 mps 749 mmHg 75%
    15:00 -11°C° 0 mm 6 mps 750 mmHg 75%
    16:00 -11°C° 0 mm 5 mps 751 mmHg 77%
    17:00 -11°C° 0 mm 5 mps 751 mmHg 79%
    18:00 -11°C° 0 mm 4 mps 752 mmHg 81%
    19:00 -11°C° 0 mm 4 mps 752 mmHg 82%
    20:00 -11°C° 0 mm 4 mps 752 mmHg 84%
    21:00 -11°C° 0 mm 4 mps 752 mmHg 85%
    22:00 -11°C° 0 mm 4 mps 752 mmHg 85%
    23:00 -11°C° 0 mm 4 mps 752 mmHg 85%

    24 November, Saturday

    Time Temperature Precipitation Wind Pressure Humidity
    00:00 -11°C° 0 mm 4 mps 752 mmHg 85%
    01:00 -11°C° 0 mm 4 mps 752 mmHg 86%
    02:00 -11°C° 0 mm 4 mps 752 mmHg 86%
    03:00 -11°C° 0 mm 4 mps 752 mmHg 86%
    04:00 -11°C° 0 mm 4 mps 752 mmHg 87%
    05:00 -12°C° 0 mm 5 mps 751 mmHg 88%
    06:00 -12°C° 0 mm 5 mps 751 mmHg 89%
    07:00 -11°C° 0 mm 5 mps 751 mmHg 89%
    08:00 -11°C° 0 mm 5 mps 750 mmHg 88%
    09:00 -10°C° 0 mm 6 mps 750 mmHg 87%
    10:00 -10°C° 0 mm 6 mps 750 mmHg 86%
    11:00 -9°C° 0 mm 6 mps 749 mmHg 84%
    12:00 -8°C° 0 mm 7 mps 749 mmHg 83%
    13:00 -8°C° 0.1 mm 6 mps 748 mmHg 82%
    14:00 -6°C° 0.1 mm 6 mps 748 mmHg 82%
    15:00 -6°C° 0.1 mm 6 mps 748 mmHg 82%
    16:00 -6°C° 0.1 mm 6 mps 748 mmHg 82%
    17:00 -6°C° 0.1 mm 6 mps 748 mmHg 83%
    18:00 -6°C° 0.1 mm 6 mps 747 mmHg 83%
    19:00 -6°C° 0 mm 6 mps 747 mmHg 84%
    20:00 -6°C° 0 mm 6 mps 747 mmHg 84%
    21:00 -6°C° 0 mm 6 mps 747 mmHg 84%
    22:00 -6°C° 0 mm 6 mps 747 mmHg 84%
    23:00 -6°C° 0 mm 6 mps 747 mmHg 84%

    25 November, Sunday

    Time Temperature Precipitation Wind Pressure Humidity
    00:00 -6°C° 0 mm 6 mps 747 mmHg 85%
    01:00 -5°C° 0.1 mm 6 mps 747 mmHg 85%
    02:00 -5°C° 0.1 mm 6 mps 747 mmHg 85%
    03:00 -5°C° 0.1 mm 6 mps 747 mmHg 85%
    04:00 -5°C° 0.1 mm 6 mps 747 mmHg 86%
    05:00 -5°C° 0.1 mm 6 mps 747 mmHg 86%
    06:00 -5°C° 0.1 mm 6 mps 747 mmHg 86%
    07:00 -6°C° 0 mm 5 mps 748 mmHg 86%
    08:00 -6°C° 0 mm 5 mps 749 mmHg 87%
    09:00 -5°C° 0 mm 4 mps 749 mmHg 87%
    10:00 -5°C° 0 mm 4 mps 750 mmHg 87%
    11:00 -4°C° 0 mm 4 mps 750 mmHg 86%
    12:00 -4°C° 0 mm 4 mps 750 mmHg 86%
    13:00 -5°C° 0 mm 3 mps 750 mmHg 88%
    14:00 -5°C° 0 mm 3 mps 751 mmHg 89%
    15:00 -5°C° 0 mm 2 mps 751 mmHg 91%
    16:00 -5°C° 0 mm 2 mps 751 mmHg 92%
    17:00 -6°C° 0 mm 2 mps 751 mmHg 93%
    18:00 -6°C° 0 mm 2 mps 751 mmHg 94%
    19:00 -6°C° 0 mm 2 mps 751 mmHg 94%
    20:00 -6°C° 0 mm 2 mps 751 mmHg 94%
    21:00 -7°C° 0 mm 2 mps 751 mmHg 94%
    22:00 -7°C° 0 mm 2 mps 750 mmHg 95%
    23:00 -7°C° 0 mm 2 mps 750 mmHg 95%

    26 November, Monday

    Time Temperature Precipitation Wind Pressure Humidity
    00:00 -6°C° 0 mm 1 mps 750 mmHg 95%
    01:00 -6°C° 0 mm 1 mps 749 mmHg 95%
    02:00 -6°C° 0 mm 1 mps 749 mmHg 95%
    03:00 -4°C° 0 mm 1 mps 748 mmHg 95%
    04:00 -4°C° 0.3 mm 1 mps 748 mmHg 96%
    05:00 -6°C° 0.3 mm 2 mps 747 mmHg 96%
    06:00 -5°C° 0.3 mm 2 mps 747 mmHg 96%
    07:00 -5°C° 0.5 mm 2 mps 746 mmHg 96%
    08:00 -5°C° 0.5 mm 2 mps 746 mmHg 96%
    09:00 -5°C° 0.5 mm 2 mps 745 mmHg 96%
    10:00 -4°C° 0.5 mm 2 mps 744 mmHg 95%
    11:00 -4°C° 0.5 mm 2 mps 744 mmHg 95%
    12:00 -4°C° 0.5 mm 2 mps 743 mmHg 94%
    13:00 -2°C° 0.3 mm 1 mps 743 mmHg 95%
    14:00 -2°C° 0.3 mm 1 mps 742 mmHg 95%
    15:00 -2°C° 0.3 mm 1 mps 742 mmHg 96%
    16:00 -2°C° 0.2 mm 1 mps 742 mmHg 96%
    17:00 -3°C° 0.2 mm 1 mps 741 mmHg 96%
    18:00 -5°C° 0.2 mm 2 mps 741 mmHg 97%
    19:00 -5°C° 0.1 mm 2 mps 741 mmHg 96%
    20:00 -5°C° 0.1 mm 2 mps 741 mmHg 96%
    21:00 -7°C° 0.1 mm 3 mps 741 mmHg 95%
    22:00 -7°C° 0.2 mm 3 mps 741 mmHg 94%
    23:00 -7°C° 0.2 mm 3 mps 741 mmHg 94%
    Show more